Regional Weather Roundup
Issued by NWS

Home | Current Version | Previous Version | Text Only | Print | Product List | Glossary Off
Versions: 1 2 3 4 5 6 7 8 9 10 11 12 13 14 15 16 17 18 19 20 21 22 23 24 25 26 27 28 29 30 31 32 33 34 35 36 37 38 39 40 41 42 43 44 45 46 47 48 49 50

000
ASUS43 KBIS 201631
RWRND
NORTH DAKOTA REGIONAL WEATHER ROUNDUP
NATIONAL WEATHER SERVICE EASTERN NORTH DAKOTA/GRAND FORKS ND
1100 AM CDT FRI APR 20 2018

  NOTE: "FAIR" INDICATES FEW OR NO CLOUDS BELOW 12,000 FEET WITH NO
  SIGNIFICANT WEATHER AND/OR OBSTRUCTIONS TO VISIBILITY.

NDZ001>003-009>011-017-201700-
...NORTHWEST NORTH DAKOTA...

CITY           SKY/WX    TMP DP  RH WIND       PRES   REMARKS
WILLISTON      FAIR      49  31  49 SE8       30.22F
MINOT          FAIR      49  28  44 S15       30.29F
MINOT AFB      FAIR      48  31  53 S10       30.28F
$$

NDZ018>021-031>035-040>046-201700-
...SOUTHWEST NORTH DAKOTA...

CITY           SKY/WX    TMP DP  RH WIND       PRES   REMARKS
BISMARCK       FAIR      49  31  49 SE13      30.30F
DICKINSON      FAIR      47  31  53 SE12      30.19F
GARRISON         N/A     43  31  62 SE14      30.28F
HETTINGER      FAIR      43  30  60 SE14      30.21F
$$

NDZ004>008-012>016-024-026-027-054-201700-
...NORTHEAST NORTH DAKOTA...

CITY           SKY/WX    TMP DP  RH WIND       PRES   REMARKS
GRAND FORKS    FAIR      48  29  47 SW9       30.41F
GRAND FORKS AF FAIR      50  27  41 S6        30.40F
DEVILS LAKE    FAIR      45  28  51 SE6       30.38F
$$

NDZ022-023-025-028>030-036>039-047>053-201700-
...SOUTHEAST NORTH DAKOTA...

CITY           SKY/WX    TMP DP  RH WIND       PRES   REMARKS
JAMESTOWN      FAIR      44  32  62 S10       30.37F
FARGO          FAIR      48  32  53 S7        30.43S
WAHPETON       FAIR      45  30  57 S9        30.45F
$$




USA.gov is the U.S. government's official web portal to all federal, state and local government web resources and services.